Zurück zum Katalog

COSMOS 1478

AktivMilitärLEO
NORAD 14176·PAYLOAD·🇷🇺 Russia

Gestartet Jul 6, 1983 von Plesetsk Cosmodrome

Loading…

Nächste Überflüge (nächste 24 Stunden)

TLE

AktuellSource: Space-Track

Epoche: Sep 14, 2026, 01:33 UTC

1 14176U 83069F   26257.06491532 -.00000013  00000-0  18618-4 0  9990
2 14176  74.0231 281.9502 0011742  30.6003 358.2649 12.48264917968231

Verfolge COSMOS 1478 in Echtzeit mit AllMySat

Download on the App Store